Location: Eboldshausen
(51.7766°N, 10.0050°E)
Time: 17:18:56
(UTC+00:00)

CZ-2D R/B - Pass Details

Date: 15 November 2025
Orbit: 404 x 412 km, 97.4° (Epoch: 10 December)

Event Time Altitude Azimuth Distance (km) Brightness Sun altitude
Rises 17:09:13 0° 181° (S) 2,336 6.7 -15.3°
Reaches altitude 10° 17:11:16 10° 189° (S) 1,477 5.8 -15.6°
Maximum altitude 17:14:16 40° 261° (W) 619 4.2 -16.0°
Drops below altitude 10° 17:17:17 10° 333° (NNW) 1,482 5.7 -16.5°
Sets 17:19:21 0° 341° (NNW) 2,347 6.7 -16.8°
